Weather History for Eagle River, WI

Change the Weather History Date:

Wednesday, October 15, 2014

  Actual Average Record
Temperature  
Mean Temperature 46 °F -  
Max Temperature 57 °F 50 °F 64 °F (1999)
Min Temperature 37 °F 32 °F 19 °F (2006)
Degree Days  
Heating Degree Days 19    
Moisture  
Dew Point 39 °F    
Average Humidity 77    
Maximum Humidity 100    
Minimum Humidity 57    
Precipitation  
Precipitation 0.00 in - - ()
Sea Level Pressure  
Sea Level Pressure 29.90 in    
Wind  
Wind Speed 12 mph (NE)    
Max Wind Speed 17 mph    
Max Gust Speed 26 mph    
Visibility 10 miles    
Events Fog , Rain    
Averages and records for this station are not official NWS values.
T = Trace of Precipitation, MM = Missing Value Source: NWS Daily Summary

Daily Weather History Graph

Daily Weather History Graph

Search for Another Location

Airport:

Trip Planner

Search our weather history database for the weather conditions in past years. The results will help you decide how hot, cold, wet, or windy it might be!

Date:

Astronomy

Oct. 15, 2014 Rise Set
Actual Time 7:13 AM CDT 6:11 PM CDT
Civil Twilight 6:43 AM CDT 6:41 PM CDT
Nautical Twilight 6:09 AM CDT 7:15 PM CDT
Astronomical Twilight 5:34 AM CDT 7:50 PM CDT
Moon No Moon Rise 2:03 PM CDT (10/15)
Length of Visible Light 11h 57m
Length of Day
10h 57m
Waning Gibbous, 51% of the Moon is Illuminated
Oct 15
Waning Gibbous
Oct 15
Last Quarter
Oct 23
New
Oct 30
First Quarter
Nov 6
Full

Hourly Weather History & Observations

Time (CDT) Temp. Windchill Dew Point Humidity Pressure Visibility Wind Dir Wind Speed Gust Speed Precip Events Conditions
12:15 AM 45.0 °F 38.5 °F 38.3 °F 77% 29.87 in 10.0 mi North 13.8 mph 26.5 mph N/A   Scattered Clouds
12:35 AM 44.6 °F 38.1 °F 37.8 °F 77% 29.87 in 10.0 mi NNE 13.8 mph 23.0 mph N/A   Scattered Clouds
12:55 AM 44.6 °F 38.1 °F 37.6 °F 76% 29.86 in 10.0 mi NNE 13.8 mph 20.7 mph N/A   Scattered Clouds
1:15 AM 44.6 °F 37.8 °F 37.4 °F 76% 29.86 in 10.0 mi NNE 15.0 mph 24.2 mph N/A   Clear
1:35 AM 44.2 °F 37.0 °F 37.4 °F 77% 29.86 in 10.0 mi North 16.1 mph 21.9 mph N/A   Clear
1:55 AM 44.6 °F 37.4 °F 37.6 °F 76% 29.87 in 10.0 mi NNE 16.1 mph 21.9 mph N/A   Scattered Clouds
2:15 AM 44.6 °F 38.4 °F 37.4 °F 76% 29.87 in 10.0 mi North 12.7 mph 20.7 mph N/A   Mostly Cloudy
2:35 AM 44.4 °F 38.2 °F 37.4 °F 76% 29.87 in 10.0 mi North 12.7 mph 20.7 mph N/A   Mostly Cloudy
2:55 AM 44.1 °F 36.5 °F 36.7 °F 75% 29.87 in 10.0 mi North 17.3 mph 20.7 mph N/A Rain Light Rain
3:15 AM 43.7 °F 37.3 °F 36.7 °F 76% 29.87 in 10.0 mi North 12.7 mph 17.3 mph N/A Rain Light Rain
3:35 AM 43.9 °F 37.2 °F 36.5 °F 75% 29.86 in 10.0 mi NNE 13.8 mph - N/A   Overcast
3:55 AM 44.2 °F 37.6 °F 36.0 °F 73% 29.85 in 10.0 mi NNE 13.8 mph 19.6 mph N/A   Overcast
4:15 AM 44.6 °F 38.4 °F 35.6 °F 71% 29.85 in 10.0 mi North 12.7 mph 21.9 mph N/A   Overcast
4:35 AM 45.1 °F 38.4 °F 35.6 °F 69% 29.85 in 10.0 mi NNE 15.0 mph 20.7 mph N/A   Overcast
4:55 AM 45.5 °F 40.3 °F 35.2 °F 67% 29.86 in 10.0 mi NNE 10.4 mph 18.4 mph N/A   Overcast
5:15 AM 44.8 °F 39.9 °F 34.9 °F 68% 29.88 in 10.0 mi NNE 9.2 mph - N/A   Overcast
5:35 AM 43.9 °F 37.9 °F 35.1 °F 71% 29.88 in 10.0 mi North 11.5 mph - N/A   Overcast
5:55 AM 43.2 °F 35.6 °F 35.1 °F 73% 29.88 in 10.0 mi North 16.1 mph 24.2 mph N/A   Mostly Cloudy
6:15 AM 43.3 °F 37.2 °F 35.2 °F 73% 29.89 in 10.0 mi NNE 11.5 mph 23.0 mph N/A   Overcast
6:35 AM 42.8 °F 36.6 °F 35.1 °F 74% 29.91 in 10.0 mi NNE 11.5 mph 23.0 mph N/A   Scattered Clouds
6:55 AM 42.3 °F 36.8 °F 35.1 °F 76% 29.92 in 10.0 mi NNE 9.2 mph - N/A   Scattered Clouds
7:15 AM 43.2 °F 36.6 °F 35.8 °F 75% 29.92 in 10.0 mi NNE 12.7 mph 17.3 mph N/A   Mostly Cloudy
7:35 AM 43.3 °F 36.8 °F 36.3 °F 76% 29.91 in 10.0 mi NNE 12.7 mph 24.2 mph N/A   Overcast
7:55 AM 43.3 °F 37.2 °F 36.7 °F 77% 29.91 in 10.0 mi North 11.5 mph - N/A   Overcast
8:15 AM 43.9 °F 37.9 °F 37.4 °F 78% 29.94 in 10.0 mi NNE 11.5 mph 17.3 mph N/A   Overcast
8:35 AM 44.1 °F 38.6 °F 37.6 °F 78% 29.94 in 10.0 mi NNE 10.4 mph 21.9 mph N/A   Overcast
8:55 AM 44.1 °F 38.1 °F 38.3 °F 80% 29.94 in 10.0 mi NE 11.5 mph 21.9 mph N/A   Overcast
9:15 AM 44.6 °F 38.1 °F 38.7 °F 80% 29.94 in 10.0 mi NNE 13.8 mph 17.3 mph N/A   Overcast
9:35 AM 44.8 °F 38.3 °F 39.0 °F 80% 29.92 in 10.0 mi NNE 13.8 mph 19.6 mph N/A   Overcast
9:55 AM 45.0 °F 38.5 °F 39.2 °F 80% 29.92 in 10.0 mi North 13.8 mph 21.9 mph N/A   Overcast
10:15 AM 45.7 °F 39.1 °F 39.6 °F 79% 29.92 in 10.0 mi NNE 15.0 mph 21.9 mph N/A   Overcast
10:35 AM 46.4 °F 41.1 °F 39.7 °F 78% 29.92 in 10.0 mi NNE 11.5 mph 20.7 mph N/A   Overcast
10:55 AM 48.6 °F - 40.6 °F 74% 29.93 in 10.0 mi NE 12.7 mph 17.3 mph N/A   Overcast
11:15 AM 47.7 °F - 40.1 °F 75% 29.94 in 10.0 mi NNE 13.8 mph 24.2 mph N/A   Overcast
11:35 AM 47.8 °F - 40.3 °F 75% 29.93 in 10.0 mi NNE 9.2 mph 18.4 mph N/A   Overcast
11:55 AM 48.7 °F - 40.5 °F 73% 29.93 in 10.0 mi NNE 15.0 mph 21.9 mph N/A   Overcast
12:15 PM 48.9 °F - 40.3 °F 72% 29.94 in 10.0 mi NE 13.8 mph 21.9 mph N/A   Overcast
12:35 PM 49.3 °F - 40.1 °F 71% 29.93 in 10.0 mi NE 17.3 mph 25.3 mph N/A   Overcast
12:55 PM 50.9 °F - 40.6 °F 68% 29.92 in 10.0 mi NE 12.7 mph 19.6 mph N/A   Mostly Cloudy
1:15 PM 51.4 °F - 40.5 °F 66% 29.90 in 10.0 mi NNE 10.4 mph - N/A   Scattered Clouds
1:35 PM 53.4 °F - 40.8 °F 62% 29.90 in 10.0 mi NNE 10.4 mph 17.3 mph N/A   Scattered Clouds
1:55 PM 54.9 °F - 41.4 °F 60% 29.89 in 10.0 mi NNE 15.0 mph - N/A   Scattered Clouds
2:15 PM 54.3 °F - 40.8 °F 60% 29.89 in 10.0 mi North 12.7 mph 19.6 mph N/A   Scattered Clouds
2:35 PM 54.1 °F - 40.6 °F 60% 29.89 in 10.0 mi NNE 10.4 mph 17.3 mph N/A   Clear
2:55 PM 55.6 °F - 41.0 °F 58% 29.90 in 10.0 mi NNE 8.1 mph - N/A   Clear
3:15 PM 55.6 °F - 40.6 °F 57% 29.90 in 10.0 mi NE 10.4 mph - N/A   Scattered Clouds
3:35 PM 55.4 °F - 41.2 °F 59% 29.91 in 10.0 mi East 9.2 mph - N/A   Clear
3:55 PM 55.4 °F - 40.6 °F 58% 29.91 in 10.0 mi East 9.2 mph - N/A   Clear
4:15 PM 55.4 °F - 40.6 °F 58% 29.90 in 10.0 mi ENE 6.9 mph - N/A   Clear
4:35 PM 55.0 °F - 40.5 °F 58% 29.91 in 10.0 mi East 6.9 mph - N/A   Clear
4:55 PM 53.2 °F - 41.5 °F 65% 29.91 in 10.0 mi ESE 9.2 mph - N/A   Clear
5:15 PM 51.8 °F - 41.2 °F 67% 29.91 in 10.0 mi East 9.2 mph - N/A   Clear
5:35 PM 50.7 °F - 41.0 °F 69% 29.91 in 10.0 mi East 5.8 mph - N/A   Clear
5:55 PM 48.9 °F - 40.8 °F 74% 29.92 in 10.0 mi ESE 5.8 mph - N/A   Clear
6:15 PM 47.3 °F - 40.8 °F 78% 29.92 in 10.0 mi East 5.8 mph - N/A   Clear
6:35 PM 45.5 °F 44.2 °F 40.1 °F 81% 29.91 in 10.0 mi East 3.5 mph - N/A   Clear
6:55 PM 44.6 °F 42.2 °F 39.7 °F 83% 29.91 in 10.0 mi East 4.6 mph - N/A   Clear
7:15 PM 43.3 °F 41.7 °F 39.6 °F 87% 29.92 in 10.0 mi NNE 3.5 mph - N/A   Clear
7:35 PM 42.6 °F 40.9 °F 41.0 °F 94% 29.92 in 10.0 mi NNE 3.5 mph - N/A   Clear
7:55 PM 41.4 °F 39.4 °F 40.8 °F 98% 29.91 in 10.0 mi NNE 3.5 mph - N/A   Clear
8:15 PM 39.6 °F 37.4 °F 39.0 °F 98% 29.92 in 10.0 mi North 3.5 mph - N/A   Scattered Clouds
8:35 PM 40.6 °F - 40.6 °F 100% 29.92 in 7.0 mi Calm Calm - N/A   Scattered Clouds
8:55 PM 38.8 °F - 38.5 °F 99% 29.92 in 10.0 mi Calm Calm - N/A   Clear
9:15 PM 37.6 °F - 37.6 °F 100% 29.91 in 0.2 mi Calm Calm - N/A Fog Fog
9:35 PM 38.7 °F - 38.7 °F 100% 29.91 in 0.5 mi Calm Calm - N/A Fog Fog
9:55 PM 39.2 °F 35.0 °F 39.2 °F 100% 29.91 in 10.0 mi NE 5.8 mph - N/A   Mostly Cloudy
10:15 PM 41.9 °F 39.0 °F 41.9 °F 100% 29.91 in 10.0 mi ENE 4.6 mph - N/A   Overcast
10:35 PM 42.8 °F 41.1 °F 42.8 °F 100% 29.90 in 10.0 mi NNE 3.5 mph - N/A   Overcast
10:55 PM 42.8 °F 40.1 °F 42.8 °F 100% 29.90 in 10.0 mi NE 4.6 mph - N/A   Overcast
11:15 PM 42.8 °F 41.1 °F 42.6 °F 99% 29.89 in 10.0 mi NE 3.5 mph - N/A   Overcast
11:35 PM 42.8 °F 41.1 °F 42.3 °F 98% 29.89 in 10.0 mi East 3.5 mph - N/A   Overcast
11:55 PM 42.1 °F - 41.9 °F 99% 29.88 in 10.0 mi Calm Calm - N/A   Overcast